STARLINK-11345, 62093

Orbit data source: Space-Track

STARLINK-11345, 62093 is a payload satellite owned by SpaceX/Seattle (US) in LEO that was launched on Mon, 25 Nov 2024 UTC via an FALCON 9 launch vehicle from the Air Force Eastern Test Range (AFETR). Payload-class satellites include a variety of spacecraft equipped with specific instruments for various scientific and technological missions. These include communications satellites like Starlink; space stations such as the ISS; scientific satellites like the Hubble; Earth observation satellites from companies like Planet Labs, Umbra, and HawkEye 360; GPS; miniature CubeSats for education and research; and military/defense satellites.

Loading next visibility...
Identifier
62093, 2024-220F
Orbit
LEO
Country
Flag of USUS
Related business
Manufacturer
SpaceX/Seattle
Mission
Operational Commercial Communications
Bus & Motor
STARLINK V2MD, Unknown motor
Mass
960 kg wet, ~910 kg dry
Launch date (UTC)
2024-11-25 (2 years ago)
Launch vehicle
FALCON 9
Launch site
Air Force Eastern Test Range (AFETR)
Object type
Payload
Rocket body
Debris
Shape & HBR
Box + 2 Pan, 18.1 m
Radar Cross Section
36.964 m², Large (>1 m²)

Expand to show TLE details & history
Last TLE update: 20 hours ago

TLE from 20 hours ago
0 STARLINK-11345
1 62093U 24220F   26170.99831043  .00171143  00000-0  13095-2 0  9990
2 62093  43.0006 146.3938 0003959 291.4331  68.6114 15.70843616 91049
Epoch: 2026-06-19T23:57Z
TLE epoch observation values (Epoch: 2026-06-19T23:57:34.021Z)
Latitude
-0.00002°
Longitude
-121.21722°
Altitude
355.285 km
Speed
7.698 km/s
True Right ascension
09h 45m 34s
True Declination
0° 00' 00"
Sunlit
Object was in daylight at epoch
Visualization orbit readout
Latitude
Unknown
Longitude
Unknown
Altitude
Unknown
Speed
Unknown
Apparent Right ascension
Unknown
Apparent Declination
Unknown
Sunlit
N/A
Visualization observer readout
Local Sidereal Time
07:11:52
Azimuth
Unknown
Elevation
Unknown
Doppler factor
Unknown
Orbital elements
Apogee altitude
361.133 km
Perigee altitude
355.799 km
Semi-major axis
6,736.603 km
Eccentricity
0.0004
Inclination
43.0006°
RAAN
146.3938°
Arg. of periapsis
291.4331°
True anomaly
68.65365°
Mean anomaly
68.6114°
Eccentric anomaly
68.63252°
Mean motion
3.92538 °/min
Orbital period
91.71 mins
BSTAR
0.0013095
Loading maneuver chart data...
Computing Atmospheric mass density...
Loading historical data...
Loading historical data...
Loading historical data...
Loading historical data...
Loading historical data...
Loading historical data...
Loading historical data...

Documentation

Showing up to 5 results
|